Date,TemperatureHighF,TemperatureAvgF,TemperatureLowF,DewpointHighF,DewpointAvgF,DewpointLowF,HumidityHigh,HumidityAvg,HumidityLow,PressureMaxIn,PressureMinIn,WindSpeedMaxMPH,WindSpeedAvgMPH,GustSpeedMaxMPH,PrecipitationSumIn
2013-1-1,74.5,66.0,58.2,62.2,58.9,54.4,92,79,61,30.24,30.06,18,3,18,0.00
2013-1-2,72.8,67.5,63.6,68.1,64.8,61.8,97,91,83,30.09,30.02,18,3,18,0.00
2013-1-3,70.5,63.8,59.3,68.8,62.8,58.2,98,96,90,30.18,30.05,19,4,19,0.16
2013-1-4,61.6,59.2,56.3,59.5,57.4,55.1,97,94,88,30.30,30.17,18,6,18,0.07
2013-1-5,72.8,63.0,57.3,63.1,58.3,51.6,95,85,70,30.32,30.20,23,6,23,0.00
2013-1-6,76.5,66.1,61.8,70.1,63.9,60.6,97,93,79,30.22,30.10,15,5,12,0.07
2013-1-7,65.6,63.0,60.7,64.1,60.2,56.0,95,91,83,30.23,30.13,25,11,25,0.00
2013-1-8,78.5,69.2,63.1,68.1,64.8,60.7,94,86,68,30.24,30.14,18,9,15,0.00
2013-1-9,80.5,72.9,67.9,70.3,68.0,66.4,96,85,66,30.30,30.18,22,7,22,0.00
2013-1-10,79.2,72.4,68.1,68.7,66.8,64.0,96,83,63,30.31,30.22,22,8,22,0.00
2013-1-11,79.5,71.5,66.7,68.1,65.7,63.6,92,82,61,30.28,30.15,18,5,18,0.00
2013-1-12,79.2,71.1,67.3,69.1,66.8,64.9,93,87,70,30.21,30.10,16,5,16,0.00
2013-1-13,77.7,70.7,66.8,68.8,66.1,64.1,92,85,71,30.19,30.08,17,4,17,0.00
2013-1-14,78.0,71.0,67.2,66.6,64.0,60.3,90,79,57,30.20,30.13,15,3,15,0.00
2013-1-15,76.7,70.3,66.6,67.7,65.4,62.8,91,85,70,30.17,30.08,13,4,0,0.00
2013-1-16,78.2,71.1,67.7,67.4,66.1,62.9,93,85,62,30.13,30.03,13,4,0,0.00
2013-1-17,71.8,64.6,55.1,69.0,59.9,47.1,95,85,63,30.18,30.01,34,9,34,0.06
2013-1-18,62.9,54.8,44.1,56.1,47.8,37.6,83,77,69,30.34,30.18,24,7,24,0.00
2013-1-19,71.8,64.1,55.1,61.9,56.7,49.1,87,77,67,30.30,30.15,27,10,27,0.00
2013-1-20,71.5,65.6,61.0,63.8,60.2,57.1,91,83,73,30.20,30.07,14,4,14,0.00
2013-1-21,72.2,65.1,62.1,63.1,58.9,54.1,88,81,72,30.13,30.05,17,3,17,0.00
2013-1-22,65.0,60.8,57.7,54.8,43.3,32.7,77,54,32,30.31,30.10,19,5,19,0.00
2013-1-23,67.8,58.5,50.8,48.6,42.3,34.0,75,56,35,30.40,30.30,16,3,16,0.00
2013-1-24,67.7,60.4,52.3,55.9,51.6,46.6,92,74,50,30.37,30.28,15,3,15,0.00
2013-1-25,71.0,62.3,57.0,58.6,55.6,47.9,95,80,47,30.35,30.22,16,2,16,0.01
2013-1-26,69.2,63.3,58.0,59.9,57.6,53.9,91,82,68,30.32,30.20,17,3,17,0.00
2013-1-27,74.0,66.3,59.7,60.5,58.5,55.0,94,78,52,30.33,30.23,22,8,22,0.01
2013-1-28,77.3,69.3,64.7,65.5,62.9,59.7,91,81,59,30.34,30.23,21,8,15,0.00
2013-1-29,78.2,70.1,64.9,67.8,65.3,62.4,94,85,67,30.25,30.11,18,7,18,0.00
2013-1-30,76.2,71.5,67.8,68.0,66.4,64.2,91,84,74,30.11,29.94,30,10,30,0.00
2013-1-31,70.3,58.5,54.0,67.2,48.1,37.6,95,69,47,30.27,29.94,24,6,24,0.12
2013-2-1,66.3,57.1,50.4,47.3,39.5,26.7,75,54,25,30.39,30.25,19,4,19,0.00
2013-2-2,67.5,57.9,50.9,50.4,45.2,32.6,80,63,30,30.33,30.19,18,5,18,0.00
2013-2-3,65.7,58.6,52.5,56.6,51.2,45.7,86,77,65,30.24,30.13,15,2,15,0.00
2013-2-4,65.8,59.3,54.4,53.2,47.1,36.0,83,65,36,30.17,30.08,14,2,14,0.00
2013-2-5,72.8,63.1,56.2,60.0,52.6,44.7,87,69,51,30.12,30.03,13,4,13,0.00
2013-2-6,76.5,67.0,62.2,64.7,60.8,56.9,90,81,58,30.13,30.05,12,3,0,0.00
2013-2-7,76.0,68.7,64.1,66.7,64.2,61.7,94,86,67,30.08,29.88,30,6,30,0.07
2013-2-8,70.2,65.9,61.1,66.0,62.2,57.8,95,88,79,30.12,29.92,25,5,25,0.00
2013-2-9,73.7,65.0,57.8,60.4,56.8,52.1,94,76,51,30.22,30.09,30,7,30,0.00
2013-2-10,77.1,68.8,63.7,64.6,61.5,58.3,86,78,60,30.26,30.16,28,12,27,0.00
2013-2-11,77.3,70.0,64.9,67.9,64.6,61.6,91,83,69,30.22,30.11,19,6,19,0.00
2013-2-12,77.1,71.4,68.3,70.9,68.2,66.0,96,90,79,30.12,29.98,22,6,22,0.00
2013-2-13,74.0,69.6,62.9,70.8,66.9,55.1,97,91,74,30.03,29.89,28,7,28,0.04
2013-2-14,65.5,62.5,59.5,60.8,58.9,55.9,96,88,75,30.08,29.95,16,3,16,0.61
2013-2-15,64.3,60.2,57.1,59.7,55.8,51.8,96,86,72,30.12,29.99,14,3,14,0.07
2013-2-16,65.3,59.0,55.4,54.3,49.2,37.9,84,71,52,30.17,29.98,29,7,29,0.01
2013-2-17,55.3,48.5,43.1,42.9,30.6,22.2,64,50,36,30.37,30.16,24,6,24,0.00
2013-2-18,67.0,54.9,44.5,53.5,41.8,31.1,78,62,45,30.39,30.22,23,8,23,0.00
2013-2-19,72.8,64.9,58.1,63.3,57.6,50.3,90,78,62,30.24,30.11,19,5,19,0.00
2013-2-20,72.8,65.2,61.9,64.3,61.5,56.0,96,88,73,30.15,30.05,14,3,0,0.00
2013-2-21,76.8,68.2,62.0,67.7,62.8,56.8,91,83,71,30.14,30.01,17,6,13,0.00
2013-2-22,79.0,70.7,65.2,70.5,66.8,62.8,93,88,74,30.09,30.02,21,6,21,0.00
2013-2-23,75.2,70.9,68.5,70.8,68.8,67.5,97,93,85,30.03,29.93,19,6,19,0.00
2013-2-28,62.3,61.8,61.4,52.8,50.4,48.6,71,66,63,30.01,29.98,16,6,16,0.00
2013-3-1,61.4,58.5,54.5,51.4,46.6,39.0,75,65,53,30.07,29.95,20,5,20,0.00
2013-3-2,57.2,54.8,49.4,45.0,42.6,38.8,76,63,54,30.08,30.01,25,6,25,0.02
2013-3-3,54.3,49.4,44.0,42.9,38.1,32.3,73,65,59,30.19,30.02,26,8,26,0.00
2013-3-4,58.1,52.7,46.3,45.6,40.0,33.3,74,62,46,30.27,30.16,19,4,19,0.00
2013-3-5,68.3,61.2,53.2,62.5,53.7,42.6,92,76,66,30.20,30.07,17,4,17,0.00
2013-3-6,66.2,59.0,54.7,63.6,49.1,39.8,93,70,51,30.18,30.00,26,8,26,0.01
2013-3-7,58.7,52.9,47.0,47.9,41.5,35.3,82,66,44,30.27,30.16,23,5,23,0.00
2013-3-8,64.8,57.0,48.5,51.7,48.0,41.3,91,73,45,30.26,30.16,17,4,17,0.00
2013-3-9,72.2,62.7,56.4,54.7,51.1,42.7,83,67,37,30.25,30.15,24,8,24,0.00
2013-3-10,74.5,65.1,60.4,59.5,56.6,53.3,86,75,52,30.18,30.07,24,10,26,0.00
2013-3-11,74.5,67.6,61.3,63.2,60.2,57.4,88,78,63,30.12,29.92,20,8,20,0.00
2013-3-12,69.3,63.8,59.1,66.0,59.5,52.3,96,86,77,30.08,29.88,24,7,24,0.28
2013-3-13,68.3,61.9,58.0,53.9,47.5,33.6,81,61,30,30.23,30.07,19,5,19,0.00
2013-3-14,61.6,57.8,53.5,52.9,40.9,28.8,76,55,31,30.31,30.20,19,5,20,0.00
2013-3-15,65.2,57.6,50.9,49.2,44.2,32.6,85,63,36,30.33,30.20,16,4,16,0.00
2013-3-16,68.2,61.8,55.4,61.8,54.4,42.7,89,78,49,30.23,30.11,14,4,0,0.00
2013-3-17,72.8,65.4,60.0,61.7,59.1,54.1,94,81,62,30.17,30.02,16,3,16,0.00
2013-3-18,72.0,67.2,63.7,66.7,63.1,59.6,93,87,78,30.06,29.91,23,5,23,0.01
2013-3-19,73.3,66.8,64.7,66.3,64.1,62.9,96,91,76,30.06,29.92,11,2,0,0.00
2013-3-20,65.0,62.1,61.2,63.2,59.6,58.1,94,92,90,29.94,29.91,21,4,21,0.10
2013-3-21,66.2,60.3,55.6,59.0,46.3,34.8,91,62,32,30.04,29.91,18,3,18,0.00
2013-3-22,74.3,63.5,54.6,66.7,54.5,45.6,93,73,55,30.03,29.91,23,6,22,0.01
2013-3-23,77.0,69.9,65.4,72.0,67.7,63.6,97,93,84,30.00,29.83,18,7,18,0.00
2013-3-24,74.8,70.8,67.9,71.9,69.1,66.1,97,94,89,29.85,29.69,22,7,22,0.00
2013-3-25,67.9,62.4,58.2,66.4,51.3,38.4,96,68,44,30.09,29.79,22,7,22,0.00
2013-3-26,60.1,54.8,51.6,48.7,41.0,36.4,68,60,51,30.28,30.08,26,7,26,0.00
2013-3-27,55.4,51.2,46.4,43.2,38.5,30.8,76,62,45,30.37,30.25,17,4,17,0.00
2013-3-28,64.3,56.2,49.1,47.6,42.3,30.7,88,62,31,30.34,30.24,19,5,19,0.00
2013-3-29,70.0,61.0,54.3,53.1,47.9,34.1,85,64,29,30.36,30.23,20,6,19,0.00
2013-3-30,69.8,63.7,57.6,60.3,55.7,47.2,85,75,62,30.28,30.17,16,4,16,0.00
2013-3-31,75.3,67.6,62.6,63.1,59.4,54.3,88,76,55,30.20,30.04,18,5,18,0.00
2013-4-1,73.2,69.2,66.2,68.7,65.7,62.1,95,89,82,30.07,29.99,16,5,16,0.00
2013-4-2,71.0,67.9,65.4,66.0,64.1,61.0,96,88,80,30.12,30.03,11,3,0,0.01
2013-4-3,79.5,71.0,65.9,69.1,66.3,61.6,94,85,66,30.11,29.96,23,6,23,0.04
2013-4-4,71.8,69.5,66.6,69.2,66.9,64.2,97,91,82,30.09,29.88,24,7,24,1.13
2013-4-5,70.1,67.1,62.6,66.2,61.8,57.2,93,83,68,30.02,29.84,21,7,21,0.08
2013-4-6,69.6,63.5,57.4,61.4,56.7,52.4,90,79,61,30.13,30.02,18,5,18,0.00
2013-4-7,80.8,70.5,63.9,64.9,61.2,58.0,91,74,50,30.18,30.07,24,8,24,0.00
2013-4-8,81.5,72.2,67.3,67.1,62.8,55.1,85,73,42,30.16,30.07,22,7,22,0.00
2013-4-9,80.3,73.4,68.3,67.8,65.3,63.6,88,76,60,30.18,30.08,26,7,26,0.00
2013-4-10,81.8,74.5,68.1,69.3,66.2,63.8,89,76,58,30.13,29.98,23,7,25,0.00
2013-4-11,84.5,76.8,72.0,72.8,70.9,66.8,94,83,66,30.00,29.83,22,9,22,0.01
2013-4-12,77.0,75.6,72.4,73.6,72.1,66.0,93,89,72,29.95,29.81,26,7,26,0.00
2013-4-13,76.9,73.7,71.3,69.8,68.1,65.4,90,83,76,30.01,29.91,13,3,0,0.00
2013-4-14,80.7,74.5,69.4,74.5,69.5,60.9,94,84,66,30.02,29.88,30,9,34,0.00
2013-4-15,81.9,75.2,70.6,70.8,66.3,61.4,82,74,60,30.09,29.96,15,3,16,0.00
2013-4-16,86.1,78.4,72.7,73.7,71.1,68.3,92,79,57,30.15,30.05,32,11,32,0.00
2013-4-17,83.3,77.2,72.6,69.7,67.0,61.8,88,72,49,30.16,30.03,34,15,34,0.00
2013-4-18,84.5,76.9,72.0,72.7,69.5,66.7,86,78,58,30.06,29.97,30,8,31,0.00
2013-4-19,83.8,78.2,74.3,74.5,72.7,71.1,92,84,67,30.03,29.96,25,8,25,0.00
2013-4-20,76.4,70.5,63.2,73.6,65.1,59.6,92,83,71,30.16,30.00,20,5,20,0.04
2013-4-21,79.6,69.9,61.7,70.6,65.1,58.8,92,85,70,30.16,30.05,25,9,25,0.07
2013-4-22,77.8,71.5,68.6,72.4,67.9,64.3,95,88,74,30.10,30.00,29,7,29,0.74
2013-4-23,80.1,72.3,66.5,69.5,65.3,62.4,91,80,57,30.14,30.04,32,11,32,0.00
2013-4-24,82.7,72.9,67.7,67.9,64.6,57.8,87,76,46,30.17,30.09,30,10,30,0.00
2013-4-25,78.8,74.8,71.2,70.6,67.1,64.9,85,77,65,30.24,30.12,17,6,17,0.00
2013-4-26,81.4,75.8,70.0,71.3,66.7,62.1,84,74,56,30.27,30.17,19,4,19,0.00
2013-4-27,82.6,76.3,72.2,70.6,67.9,62.2,89,76,51,30.24,30.09,30,12,30,0.00
2013-4-28,82.3,75.5,71.4,69.2,66.7,62.7,83,75,52,30.14,29.99,30,8,30,0.00
2013-4-29,82.0,76.2,72.2,72.2,68.2,63.1,89,77,64,30.04,29.93,21,6,21,0.00
2013-4-30,85.0,76.3,69.7,72.8,70.1,67.1,93,82,58,30.02,29.93,29,7,29,0.00
2013-5-1,74.7,71.8,67.7,72.3,69.0,65.9,96,91,84,30.02,29.93,32,14,32,0.80
2013-5-2,78.3,72.5,68.5,71.3,68.4,65.6,93,87,78,29.99,29.84,26,10,26,0.00
2013-5-3,77.8,74.1,70.6,71.1,68.7,65.9,92,84,74,29.85,29.75,19,4,19,0.05
2013-5-4,76.6,72.3,68.8,69.8,67.4,65.4,91,85,77,29.85,29.71,27,6,27,0.01
2013-5-5,73.0,69.4,65.6,66.9,57.6,51.4,92,67,49,29.97,29.83,22,7,22,0.02
2013-5-6,71.8,69.1,66.0,64.6,58.5,55.4,82,69,62,30.05,29.93,21,6,21,0.02
2013-5-7,74.0,70.0,66.1,63.5,58.8,55.4,77,68,59,30.09,30.00,18,6,18,0.00
2013-5-8,75.1,72.0,68.3,63.6,61.4,58.4,79,70,61,30.17,30.06,14,4,14,0.00
2013-5-9,78.2,73.6,68.8,67.6,65.3,62.5,85,76,63,30.18,30.10,14,3,14,0.00
2013-5-10,83.5,75.7,69.3,73.4,68.7,63.8,94,80,54,30.17,30.02,17,5,17,0.00
2013-5-11,81.6,77.3,74.2,76.3,73.5,69.2,95,88,81,30.08,30.02,16,4,16,0.00
2013-5-12,80.4,77.1,74.9,74.0,71.7,68.2,94,84,72,30.08,29.97,16,4,16,0.00
2013-5-13,82.3,75.3,70.8,70.3,62.2,50.6,86,66,41,30.16,30.03,16,3,17,0.00
2013-5-14,80.8,72.2,64.9,61.7,52.0,40.1,70,50,27,30.24,30.14,22,6,22,0.00
2013-5-15,82.1,74.7,70.3,65.2,60.7,53.2,73,63,40,30.23,30.09,23,8,23,0.00
2013-5-16,79.4,75.0,70.9,68.8,65.1,61.6,83,72,56,30.16,30.02,18,6,18,0.00
2013-5-17,80.5,76.3,72.1,70.3,67.8,65.0,83,75,65,30.12,30.04,18,6,18,0.00
2013-5-18,81.5,77.1,72.9,73.6,71.1,68.2,92,82,72,30.14,30.05,18,5,18,0.00
2013-5-19,82.1,78.2,74.0,72.6,69.5,65.8,89,75,63,30.12,30.01,14,3,14,0.00
2013-5-20,85.9,78.6,75.4,74.9,70.9,65.7,85,78,63,30.09,29.99,32,5,32,0.00
2013-5-21,84.7,76.6,72.6,72.3,70.7,67.5,93,83,63,30.06,29.95,28,8,28,0.00
2013-5-22,81.0,77.2,73.6,72.7,71.0,68.7,90,81,74,30.00,29.92,17,5,17,0.00
2013-5-23,82.2,78.9,75.6,74.1,72.5,70.5,90,81,72,30.04,29.94,17,5,17,0.00
2013-5-24,85.3,80.3,77.0,76.2,72.5,66.3,87,78,56,30.10,30.00,20,5,20,0.00
2013-5-25,87.0,81.1,76.6,72.6,67.5,56.9,82,65,37,30.19,30.07,37,15,37,0.00
2013-5-26,83.7,77.3,72.4,67.9,61.1,48.1,78,59,33,30.24,30.12,32,14,33,0.00
2013-5-27,85.3,78.1,72.9,69.8,65.5,60.8,80,66,46,30.20,30.06,37,15,37,0.00
2013-5-28,84.8,77.9,73.9,74.1,71.2,68.8,88,80,63,30.16,30.04,36,18,36,0.10
2013-5-29,84.3,77.8,73.5,73.3,71.5,68.4,91,81,63,30.11,30.03,42,18,42,0.03
2013-5-30,83.8,78.9,75.5,74.6,72.0,68.2,90,80,67,30.10,30.01,38,22,38,0.00
2013-5-31,83.5,78.6,75.0,74.3,71.9,69.5,86,80,68,30.09,30.01,35,16,35,0.00
2013-6-1,82.5,78.1,74.7,76.1,73.5,71.5,95,86,74,30.07,29.97,27,10,28,0.30
2013-6-2,84.3,79.1,74.1,76.9,74.4,72.1,95,86,75,30.02,29.92,22,5,20,0.00
2013-6-3,82.8,79.3,77.0,76.5,74.3,71.8,93,85,73,30.02,29.92,17,5,17,0.27
2013-6-4,84.3,80.1,76.3,75.3,73.6,71.2,90,81,67,30.03,29.96,17,5,17,0.00
2013-6-5,82.3,78.7,75.7,74.7,73.3,70.8,90,84,73,30.03,29.90,30,10,30,0.15
2013-6-6,79.8,75.5,73.8,75.7,73.7,72.0,97,94,85,29.91,29.71,37,17,37,2.64
2013-6-8,84.8,79.0,72.7,77.9,74.8,71.3,97,87,77,30.12,30.03,28,8,28,1.31
2013-6-9,88.3,79.7,75.2,76.6,73.8,69.8,95,83,62,30.12,30.03,29,6,29,0.01
2013-6-10,86.5,81.4,77.5,77.2,75.5,72.9,92,82,71,30.11,30.03,17,6,17,0.00
2013-6-11,88.5,82.3,78.3,78.0,75.5,72.7,91,80,65,30.11,30.04,15,4,15,0.02
2013-6-12,85.8,82.3,77.1,77.7,74.4,71.3,88,77,68,30.11,30.02,18,4,18,0.00
2013-6-13,85.2,82.2,79.8,76.0,74.9,73.2,86,79,69,30.07,29.94,14,4,14,0.00
2013-6-14,84.8,82.1,80.3,75.7,74.3,72.3,83,78,70,29.98,29.91,16,6,16,0.00
2013-6-15,85.3,82.2,80.0,77.4,75.8,73.3,87,81,75,30.07,29.94,19,6,19,0.00
2013-6-16,86.3,82.5,79.0,78.7,76.8,75.1,91,83,76,30.10,30.04,24,7,24,0.00
2013-6-17,87.5,84.1,80.7,77.7,76.0,73.5,88,77,65,30.09,30.01,16,4,15,0.00
2013-6-18,87.1,83.8,80.7,77.7,75.8,74.3,82,77,70,30.08,29.99,12,3,0,0.00
2013-6-19,87.8,84.4,80.7,77.9,76.3,74.2,86,77,68,30.06,30.00,13,4,13,0.02
2013-6-20,87.5,83.5,79.6,77.2,74.5,70.7,87,75,63,30.13,30.03,20,4,20,0.00
2013-6-21,87.3,81.8,77.7,77.3,73.9,71.4,88,78,65,30.13,30.05,35,5,35,0.00
2013-6-22,88.5,81.5,72.6,75.3,72.7,68.7,95,76,56,30.14,30.06,36,7,36,0.02
2013-6-23,89.9,81.6,76.1,76.2,74.1,67.6,89,79,54,30.15,30.07,32,9,32,0.17
2013-6-24,90.2,82.3,75.2,76.7,74.3,69.4,94,78,53,30.20,30.07,19,7,20,0.65
2013-6-25,89.7,82.4,75.6,76.7,74.2,66.7,93,77,54,30.17,30.04,42,5,42,0.13
2013-6-26,88.3,82.1,77.5,76.9,74.8,71.5,89,79,60,30.10,30.02,32,5,32,0.01
2013-6-27,86.7,82.5,76.4,77.0,75.2,71.4,90,79,71,30.07,29.97,21,4,21,0.00
2013-6-28,87.0,84.1,81.8,77.7,75.5,73.2,82,76,66,30.00,29.87,18,6,18,0.00
2013-6-29,84.6,81.0,72.1,77.5,74.6,68.7,95,81,73,29.92,29.83,35,6,35,0.85
2013-6-30,86.5,82.6,75.9,78.0,75.7,72.1,94,80,68,29.91,29.82,26,7,26,0.31
2013-7-1,80.9,77.1,71.0,76.3,73.8,67.5,96,90,79,30.00,29.86,31,7,31,3.70
2013-7-2,87.5,78.7,73.9,76.4,74.0,72.2,97,86,67,30.10,29.97,34,8,34,0.18
2013-7-3,87.5,77.6,72.0,77.1,74.1,70.4,97,89,69,30.14,30.05,34,8,45,2.25
2013-7-4,87.5,78.3,71.9,77.2,73.9,69.7,97,87,65,30.17,30.07,33,8,33,0.23
2013-7-5,86.8,78.4,71.9,76.3,74.3,70.7,97,88,68,30.16,30.08,40,9,40,0.45
2013-7-6,89.0,81.4,76.8,77.7,75.4,71.9,93,82,60,30.13,30.04,23,7,23,0.00
2013-7-7,89.3,82.0,78.5,77.1,74.9,71.3,90,80,57,30.15,30.04,36,8,36,0.06
2013-7-8,89.8,82.4,78.8,77.6,75.2,72.2,90,80,58,30.18,30.09,20,8,19,0.00
2013-7-9,88.7,82.5,78.4,76.8,74.2,69.2,88,77,56,30.19,30.06,18,5,18,0.00
2013-7-10,86.5,81.6,76.4,75.2,73.9,71.5,90,78,67,30.11,29.98,24,5,24,0.00
2013-7-11,85.3,81.1,77.4,76.7,74.7,70.7,90,81,68,30.05,29.95,15,3,16,0.35
2013-7-12,85.8,82.0,76.6,76.8,74.6,71.0,89,78,66,29.98,29.91,17,4,17,0.21
2013-7-13,86.2,80.7,77.3,76.6,74.2,70.8,89,81,68,30.00,29.92,28,5,28,0.05
2013-7-14,86.3,79.3,75.8,77.3,74.7,70.7,93,86,71,30.10,29.97,23,6,23,0.00
2013-7-15,82.5,77.6,76.0,73.8,72.8,71.6,91,85,72,30.13,30.07,23,10,23,0.00
2013-7-16,78.3,77.9,77.2,74.2,73.2,71.4,88,85,82,30.16,30.12,25,17,0,0.00
2013-7-17,85.5,78.7,73.2,76.1,73.9,69.8,92,85,67,30.17,30.08,42,12,42,0.06
2013-7-18,85.8,77.9,74.7,75.0,73.2,70.5,92,86,69,30.14,30.06,24,9,23,0.29
2013-7-19,86.1,78.3,75.6,77.3,73.9,71.4,94,87,72,30.15,30.06,25,6,25,0.06
2013-7-20,86.3,79.8,76.1,78.6,74.8,71.6,92,85,74,30.14,30.04,19,5,22,0.00
2013-7-21,87.3,82.5,77.5,79.1,77.0,73.9,93,84,74,30.15,30.07,13,3,13,0.00
2013-7-22,87.3,83.9,81.3,78.5,77.0,75.7,86,80,74,30.16,30.08,14,4,15,0.00
2013-7-23,86.3,83.5,81.5,76.9,75.6,73.2,84,77,69,30.12,29.99,14,5,16,0.00
2013-7-24,86.2,83.5,80.9,77.1,75.8,74.4,84,78,70,30.04,29.94,20,9,20,0.00
2013-7-25,86.0,83.6,82.3,77.7,76.6,74.9,85,80,72,30.03,29.90,23,10,23,0.01
2013-7-26,88.3,83.2,76.4,79.1,77.3,74.0,96,83,70,30.04,29.97,25,4,25,0.09
2013-7-27,87.3,84.1,82.1,78.4,76.0,72.2,88,77,64,30.02,29.95,14,3,14,0.00
2013-7-28,87.5,83.6,81.1,77.3,75.0,72.4,84,76,67,30.08,29.96,17,2,17,0.00
2013-7-29,88.9,84.0,79.6,77.5,75.1,72.3,87,75,64,30.16,30.04,15,1,18,0.00
2013-7-30,90.3,84.0,80.2,78.5,75.0,69.7,87,75,59,30.19,30.08,26,3,26,0.02
2013-7-31,92.0,83.9,79.6,78.4,76.1,72.0,92,78,58,30.14,30.03,18,4,18,0.00
2013-8-1,88.0,83.0,75.9,77.2,75.5,72.7,92,78,66,30.08,29.97,28,5,34,0.11
2013-8-2,87.3,83.3,78.6,77.9,75.7,73.1,89,78,69,30.07,29.97,14,3,14,0.01
2013-8-3,89.0,85.7,82.1,77.9,76.0,74.0,80,73,66,30.12,30.02,15,4,15,0.00
2013-8-4,88.3,85.6,83.7,78.8,77.0,75.4,80,76,71,30.11,30.02,14,5,15,0.00
2013-8-5,88.8,86.0,84.0,79.2,77.5,75.7,81,76,69,30.05,29.96,15,5,16,0.00
2013-8-6,88.8,84.4,80.6,79.8,77.4,73.0,86,80,69,30.01,29.91,14,2,14,0.00
2013-8-7,93.4,82.1,72.2,79.5,76.3,70.0,96,83,56,29.99,29.91,57,4,57,1.29
2013-8-8,90.3,82.4,75.4,77.6,76.0,71.8,94,82,60,30.04,29.94,27,7,27,0.64
2013-8-9,91.5,81.5,74.9,77.0,75.0,69.7,92,82,58,30.08,29.98,20,6,20,0.04
2013-8-10,89.5,82.9,78.0,79.2,75.9,73.3,89,80,63,30.14,30.05,19,5,19,0.03
2013-8-11,90.5,84.5,79.9,78.5,76.6,74.7,88,78,62,30.17,30.07,18,6,18,0.00
2013-8-12,89.3,84.7,80.5,79.4,77.4,74.5,87,79,69,30.15,30.02,18,5,18,0.00
2013-8-13,89.8,85.1,80.7,78.7,76.2,73.7,85,75,62,30.07,29.96,16,4,16,0.00
2013-8-14,88.6,84.9,79.5,79.0,76.9,72.8,89,77,68,30.02,29.95,14,3,15,0.02
2013-8-15,87.1,83.5,80.2,77.8,76.1,73.8,88,78,71,30.06,29.97,20,6,20,0.00
2013-8-16,88.5,84.4,79.9,77.8,75.5,70.4,85,75,67,30.07,29.98,35,4,35,0.00
2013-8-17,90.5,82.6,75.7,79.5,75.7,70.2,93,80,56,30.10,30.00,27,6,27,0.26
2013-8-18,87.9,81.5,76.0,78.3,76.3,72.2,94,85,66,30.13,30.02,27,7,27,0.45
2013-8-19,92.0,81.1,75.7,78.4,75.6,72.2,94,84,59,30.09,29.97,26,7,26,0.32
2013-8-20,89.5,81.2,77.2,77.4,75.1,70.7,93,82,61,30.10,30.00,22,6,22,0.00
2013-8-21,90.3,81.7,75.7,77.7,75.9,72.2,93,83,57,30.12,29.98,38,12,38,0.30
2013-8-22,88.7,80.8,75.7,78.2,75.9,71.5,93,85,67,30.10,29.98,24,10,24,0.31
2013-8-23,91.7,82.0,78.5,77.6,75.9,71.9,93,83,59,30.04,29.97,27,9,27,0.02
2013-8-24,91.8,82.2,78.1,77.5,75.5,73.1,90,81,57,30.14,30.01,39,7,39,0.00
2013-8-25,86.1,80.2,77.3,76.1,74.5,71.0,90,83,67,30.18,30.08,27,7,27,0.00
2013-8-26,89.6,80.0,76.0,76.7,74.6,71.2,92,84,58,30.16,30.02,31,6,31,0.60
2013-8-27,87.0,80.5,76.2,76.3,74.3,70.9,93,82,63,30.07,30.00,25,7,24,0.00
2013-8-28,87.4,81.2,76.7,75.4,73.1,68.9,89,77,57,30.08,29.99,18,5,18,0.17
2013-8-29,86.8,82.8,78.7,77.2,73.8,70.5,81,74,66,30.06,29.96,19,4,19,0.00
2013-8-30,87.8,82.2,73.5,77.6,75.7,70.5,94,81,67,30.03,29.92,27,2,27,1.25
2013-8-31,87.3,82.1,73.7,76.7,74.0,69.7,91,77,63,30.01,29.91,24,2,24,0.18
2013-9-1,88.2,83.5,76.8,77.3,74.9,71.6,89,76,65,30.01,29.94,15,3,15,0.04
2013-9-2,87.5,83.3,78.5,78.7,75.7,73.6,92,78,67,30.05,29.95,14,3,14,0.20
2013-9-3,87.7,83.6,75.2,79.3,75.2,70.6,90,76,65,30.05,29.95,18,2,18,0.98
2013-9-4,90.1,82.7,77.1,77.7,75.2,70.4,91,79,57,30.11,29.98,21,6,21,0.01
2013-9-5,90.3,81.8,78.8,79.5,75.6,70.0,89,82,67,30.11,30.01,24,9,24,0.12
2013-9-6,90.8,84.1,77.6,79.3,77.1,72.1,89,80,59,30.08,29.96,38,6,38,0.01
2013-9-14,81.6,80.9,80.5,75.2,74.7,74.4,82,82,80,29.99,29.98,5,1,0,0.00
2013-9-15,90.0,81.1,71.2,77.3,74.6,69.4,96,81,59,30.10,29.97,61,12,61,0.04
2013-9-16,88.1,80.1,76.3,76.5,74.2,72.6,93,83,63,30.09,29.99,23,11,32,0.02
2013-9-17,87.0,79.9,75.1,75.8,73.9,71.1,94,83,64,30.07,29.96,32,13,32,0.13
2013-9-18,86.1,79.5,74.6,76.5,74.6,71.7,96,85,69,30.04,29.97,31,13,39,0.67
2013-9-19,86.2,79.7,73.6,76.2,74.1,70.3,97,83,62,30.08,29.98,34,10,34,0.55
2013-9-20,85.9,81.0,76.7,76.0,72.2,67.7,96,75,56,30.05,29.91,22,11,22,0.00
2013-9-21,84.8,80.8,76.8,75.3,71.7,68.7,83,74,64,29.96,29.80,21,7,21,0.00
2013-9-22,85.8,82.7,80.6,78.3,75.8,71.6,90,80,72,29.87,29.78,22,4,22,0.14
2013-9-23,81.8,78.8,75.1,77.7,75.9,73.2,96,91,82,29.96,29.84,22,5,22,1.21
2013-9-24,81.3,78.1,74.7,77.3,75.1,71.5,96,91,85,29.99,29.86,22,6,22,1.71
2013-9-25,81.7,76.9,70.2,78.3,73.5,69.0,97,90,79,29.96,29.82,37,6,37,2.18
2013-9-26,85.8,82.1,76.9,78.7,76.5,72.7,91,83,70,29.90,29.81,19,6,19,0.00
2013-9-27,85.0,77.7,71.3,73.3,70.6,68.5,93,79,61,29.99,29.89,23,6,23,0.00
2013-9-28,86.1,78.1,72.2,73.6,71.3,67.0,92,80,60,30.03,29.94,30,10,33,0.02
2013-9-29,85.2,78.4,72.5,73.2,70.2,61.7,89,77,48,30.01,29.92,24,8,24,0.00
2013-9-30,87.2,79.5,75.2,74.3,72.0,68.7,89,79,57,30.01,29.93,25,8,25,0.00
2013-10-1,87.1,80.9,76.1,74.7,72.8,68.1,90,77,55,30.06,29.97,30,13,30,0.00
2013-10-2,86.0,80.6,75.7,74.7,72.7,70.2,89,77,60,30.07,29.98,26,15,26,0.00
2013-10-3,86.0,80.6,76.6,75.1,71.9,68.4,87,76,57,30.09,29.98,24,10,24,0.00
2013-10-4,87.2,80.9,77.4,76.5,73.7,68.9,89,79,57,30.11,30.01,26,6,26,0.00
2013-10-5,86.8,80.5,77.1,75.3,72.8,70.0,85,78,59,30.08,29.96,25,9,26,0.00
2013-10-6,85.8,80.4,76.6,76.2,74.2,70.5,92,82,62,30.01,29.89,17,6,17,0.00
2013-10-7,84.5,80.9,74.9,78.1,75.4,72.0,94,84,76,29.89,29.78,29,10,29,0.62
2013-10-8,83.5,80.6,76.3,76.1,74.3,70.8,87,81,75,29.98,29.83,23,8,23,0.00
2013-10-9,78.6,74.9,70.9,71.7,69.2,66.2,87,83,71,30.07,29.97,17,4,17,0.00
2013-10-10,80.8,74.7,68.6,70.5,67.9,65.5,90,80,69,30.09,29.99,16,6,16,0.00
2013-10-11,85.0,77.6,74.0,70.8,68.0,64.8,86,73,57,30.08,29.98,16,5,16,0.00
2013-10-12,84.3,78.0,73.7,68.2,65.8,62.2,81,67,50,30.08,30.00,19,3,19,0.00
2013-10-13,83.0,77.5,71.9,70.5,65.7,59.0,84,68,47,30.11,30.01,14,3,14,0.00
2013-10-14,83.8,77.0,70.7,70.5,67.3,62.6,91,73,52,30.07,29.95,21,4,21,0.00
2013-10-15,79.2,73.9,69.2,72.3,69.2,66.7,93,85,75,30.03,29.92,18,4,18,0.00
2013-10-16,80.2,75.1,71.3,72.3,69.6,68.2,92,84,70,30.00,29.93,13,2,13,0.00
2013-10-17,82.0,77.6,73.1,73.8,71.6,68.8,90,82,72,30.01,29.92,13,3,0,0.00
2013-10-18,84.7,78.8,74.3,75.0,73.0,71.1,92,83,71,30.01,29.92,11,2,0,0.00
2013-10-19,84.5,79.7,76.6,76.9,74.5,72.6,89,84,77,29.98,29.90,14,4,14,0.00
2013-10-20,84.7,79.8,76.8,76.2,74.0,71.9,93,83,72,29.98,29.90,10,1,0,0.06
2013-10-21,83.0,79.4,76.5,76.2,74.0,72.5,92,84,72,30.03,29.95,20,4,0,0.00
2013-10-22,84.0,78.1,72.5,77.3,73.8,70.3,96,87,76,29.98,29.85,18,3,18,0.77
2013-10-23,78.7,75.4,71.5,73.1,65.5,55.5,91,72,52,30.04,29.84,17,4,17,0.02
2013-10-24,71.7,68.5,64.6,61.3,51.9,45.7,73,56,41,30.19,30.03,15,6,22,0.00
2013-10-25,78.5,70.2,62.9,61.9,57.8,49.7,89,67,40,30.27,30.17,14,2,14,0.00
2013-10-26,75.3,68.4,62.8,61.7,58.9,57.0,83,72,56,30.24,30.12,24,5,24,0.00
2013-10-27,76.2,68.1,62.3,62.8,59.2,53.2,88,74,49,30.15,30.08,19,4,19,0.00
2013-10-28,80.1,71.3,64.9,63.3,60.4,55.3,84,69,47,30.22,30.11,19,6,16,0.00
2013-10-29,81.5,73.8,66.6,67.9,64.9,60.0,92,75,51,30.25,30.14,24,9,24,0.00
2013-10-30,81.1,74.8,68.8,69.8,67.3,65.5,90,78,61,30.25,30.10,25,10,25,0.00
2013-10-31,82.7,75.6,71.1,72.6,69.2,66.7,90,81,61,30.15,30.00,19,5,19,0.00
2013-11-1,81.8,77.2,74.0,75.2,73.1,70.7,91,87,78,30.03,29.91,19,4,19,0.00
2013-11-2,77.3,72.2,67.1,74.7,68.0,60.9,96,87,71,30.02,29.84,18,2,18,2.21
2013-11-3,74.5,68.4,61.8,63.3,53.3,41.1,86,61,34,30.14,30.00,25,5,25,0.00
2013-11-4,76.8,69.6,62.0,64.5,59.4,52.8,83,71,55,30.17,30.10,31,12,34,0.00
2013-11-5,79.0,73.1,66.5,69.7,66.9,63.4,92,81,70,30.17,30.06,33,16,33,0.00
2013-11-6,82.0,75.2,71.6,69.6,67.7,64.8,88,78,58,30.13,30.03,23,9,23,0.00
2013-11-7,77.0,72.7,69.5,70.5,67.8,66.2,92,85,74,30.09,30.00,16,3,16,0.00
2013-11-8,77.0,71.3,66.7,68.9,64.1,60.8,93,79,62,30.14,30.02,27,8,27,0.00
2013-11-9,79.5,72.8,66.7,68.7,65.1,60.7,84,77,65,30.18,30.10,26,16,26,0.00
2013-11-10,79.8,73.4,68.5,68.3,66.1,63.8,86,78,63,30.19,30.09,22,6,17,0.00
2013-11-11,79.0,72.2,67.2,69.1,66.6,63.1,92,83,67,30.18,30.08,18,5,17,0.00
2013-11-12,75.7,71.3,68.1,69.5,66.8,58.6,92,86,68,30.14,30.04,11,2,0,0.00
2013-11-13,70.1,61.9,55.6,58.6,52.1,48.1,79,70,62,30.32,30.10,31,12,31,0.00
2013-11-14,73.3,64.2,54.5,61.3,55.5,49.3,86,74,57,30.32,30.18,30,14,30,0.00
2013-11-15,66.9,66.7,66.6,61.2,60.8,60.3,82,81,81,30.19,30.18,15,12,0,0.00
2013-11-19,78.1,73.3,68.5,71.3,67.0,61.8,89,81,70,30.00,29.90,19,6,19,0.18
2013-11-20,79.4,71.7,66.5,71.7,67.1,62.4,90,86,75,30.11,29.99,26,8,26,0.00
2013-11-21,80.1,74.4,71.6,71.8,70.2,68.6,93,87,73,30.20,30.10,25,15,28,0.00
2013-11-22,79.6,74.9,71.2,71.5,69.6,67.2,92,84,71,30.20,30.11,23,12,23,0.00
2013-11-23,80.0,72.3,67.4,69.8,66.9,65.2,93,83,65,30.14,30.04,15,4,14,0.00
2013-11-24,70.2,66.3,60.3,67.0,61.1,53.1,93,83,74,30.24,30.06,33,10,33,0.00
2013-11-25,73.7,68.2,60.7,64.3,60.2,53.8,86,76,64,30.24,30.06,34,21,34,0.00
2013-11-26,79.0,72.7,68.7,72.8,69.7,64.2,97,90,80,30.06,29.79,29,10,29,0.35
2013-11-27,71.9,64.1,49.4,70.9,57.6,42.3,97,80,69,30.24,29.77,34,9,34,0.00
2013-11-28,61.6,51.4,40.9,50.9,42.6,33.6,85,73,51,30.38,30.24,20,4,20,0.00
2013-11-29,70.5,61.3,53.6,58.1,53.6,49.5,89,77,57,30.38,30.28,23,9,23,0.00
2013-11-30,73.3,64.5,56.7,63.2,58.6,51.6,91,81,68,30.34,30.19,24,8,24,0.00
2013-12-1,70.3,63.0,60.3,64.4,60.5,58.6,96,92,81,30.22,30.01,13,2,15,0.00
2013-12-2,69.0,64.3,59.6,61.8,59.0,55.1,96,84,64,30.02,29.88,7,0,0,0.00
2013-12-3,75.0,68.2,63.3,67.4,63.8,58.9,92,86,73,30.00,29.91,13,2,13,0.00
2013-12-4,79.5,71.6,66.9,70.5,67.6,65.4,96,88,72,30.10,29.98,11,2,12,0.00
2013-12-5,78.5,71.2,67.5,69.2,67.1,64.7,94,87,68,30.19,30.09,14,2,14,0.00
2013-12-6,80.3,72.4,67.9,72.1,69.0,66.3,96,89,75,30.19,30.11,19,4,19,0.00
2013-12-7,78.8,72.0,68.6,70.4,68.2,66.5,96,88,72,30.26,30.16,10,2,0,0.01
2013-12-8,80.8,72.7,69.0,70.5,68.2,66.7,94,86,67,30.24,30.12,13,3,13,0.00
2013-12-9,80.4,73.0,69.2,72.3,69.2,66.8,94,88,75,30.20,30.10,16,4,16,0.00
2013-12-10,77.3,72.6,68.8,71.5,69.4,67.0,95,90,81,30.19,30.11,12,2,12,0.00
2013-12-11,78.0,69.7,65.3,69.3,65.3,60.1,93,86,71,30.27,30.17,23,8,23,0.00
2013-12-12,70.4,65.2,58.0,65.7,54.0,35.3,95,71,36,30.33,30.21,21,6,21,0.00
2013-12-13,72.9,63.7,54.7,62.2,54.2,41.7,86,72,53,30.31,30.12,26,12,26,0.00
2013-12-14,79.6,71.8,66.0,71.4,67.4,60.9,93,86,75,30.13,29.97,23,8,23,0.00
2013-12-15,73.2,67.7,60.3,71.2,63.5,55.8,97,87,71,30.16,29.92,19,3,19,0.22
2013-12-16,62.9,57.0,50.9,55.8,49.1,44.8,89,75,55,30.26,30.14,14,2,14,0.00
2013-12-17,70.0,58.5,50.6,54.2,49.0,44.5,85,71,53,30.28,30.18,14,3,14,0.00
2013-12-18,69.2,60.8,55.0,54.8,50.4,42.3,90,71,40,30.32,30.23,16,2,16,0.00
2013-12-19,72.2,63.6,55.1,60.2,54.9,48.3,82,74,56,30.30,30.18,22,9,22,0.00
2013-12-20,80.2,70.3,64.5,68.5,63.7,58.3,86,80,68,30.21,30.10,19,6,22,0.00
2013-12-21,81.2,73.0,67.9,71.4,68.1,65.2,94,85,72,30.15,30.03,17,5,17,0.00
2013-12-22,80.0,73.8,69.2,72.9,69.8,67.5,96,88,77,30.15,30.08,23,5,23,0.00
2013-12-23,79.3,73.5,69.4,73.7,70.8,67.9,96,91,82,30.19,30.11,19,4,19,0.00
2013-12-24,70.9,63.4,54.8,69.7,52.8,35.4,96,71,32,30.29,30.14,19,5,19,0.00
2013-12-25,72.2,61.7,51.1,62.4,52.3,40.4,80,71,60,30.28,30.14,25,11,24,0.00
2013-12-26,71.6,65.9,61.1,64.3,60.3,57.3,89,82,75,30.24,30.12,21,6,21,0.00
2013-12-27,70.5,65.3,61.7,65.6,61.7,57.9,92,88,84,30.27,30.15,25,11,25,0.05
2013-12-28,75.7,69.7,64.9,68.7,66.2,62.8,96,89,79,30.23,30.01,26,10,30,0.00
2013-12-29,72.7,69.0,63.5,70.6,67.1,61.6,97,94,90,30.05,29.91,15,4,25,0.69
2013-12-30,64.5,62.8,60.4,62.1,59.7,57.5,93,90,83,30.23,30.04,9,1,0,0.00
2013-12-31,66.8,63.9,61.2,57.6,53.9,50.9,83,70,59,30.32,30.18,17,6,17,0.00
2014-1-1,63.9,61.9,59.6,62.5,58.7,52.6,96,89,70,30.28,30.07,26,10,26,0.06
2014-1-2,74.8,67.0,60.7,71.5,65.6,55.6,98,95,81,30.07,29.87,30,6,30,0.73